STARLINK-30505, 57972

Orbit data source: Space-Track

STARLINK-30505, 57972 is a payload satellite owned by SpaceX/Seattle (US) in LEO that was launched on Sat, 30 Sep 2023 UTC via an FALCON 9 launch vehicle from the Air Force Eastern Test Range (AFETR). Payload-class satellites include a variety of spacecraft equipped with specific instruments for various scientific and technological missions. These include communications satellites like Starlink; space stations such as the ISS; scientific satellites like the Hubble; Earth observation satellites from companies like Planet Labs, Umbra, and HawkEye 360; GPS; miniature CubeSats for education and research; and military/defense satellites.

Loading next visibility...
Identifier
57972, 2023-151J
Orbit
LEO
Country
Flag of USUS
Related business
Manufacturer
SpaceX/Seattle
Mission
Operational Commercial Communications
Bus & Motor
STARLINK V2M, Unknown motor
Mass
730 kg wet, ~700 kg dry
Launch date (UTC)
2023-09-30 (3 years ago)
Launch vehicle
FALCON 9
Launch site
Air Force Eastern Test Range (AFETR)
Object type
Payload
Rocket body
Debris
Shape & HBR
Box + 2 Pan, 17.7 m
Radar Cross Section
33.884 m², Large (>1 m²)

Expand to show TLE details & history
Last TLE update: 11 hours ago

TLE from 11 hours ago
0 STARLINK-30505
1 57972U 23151J   26130.02455226  .00007798  00000-0  29267-3 0  9990
2 57972  43.0008 349.8715 0001383 264.6526  95.4168 15.27570900145144
Epoch: 2026-05-10T00:35Z
TLE epoch observation values (Epoch: 2026-05-10T00:35:21.315Z)
Latitude
-0°
Longitude
113.19912°
Altitude
482.942 km
Speed
7.626 km/s
True Right ascension
23h 19m 29s
True Declination
0° 00' 00"
Sunlit
Object was in daylight at epoch
Visualization orbit readout
Latitude
Unknown
Longitude
Unknown
Altitude
Unknown
Speed
Unknown
Apparent Right ascension
Unknown
Apparent Declination
Unknown
Sunlit
N/A
Visualization observer readout
Local Sidereal Time
19:51:19
Azimuth
Unknown
Elevation
Unknown
Doppler factor
Unknown
Orbital elements
Apogee altitude
485.971 km
Perigee altitude
484.072 km
Semi-major axis
6,863.158 km
Eccentricity
0.00014
Inclination
43.0008°
RAAN
349.8715°
Arg. of periapsis
264.6526°
True anomaly
95.43258°
Mean anomaly
95.4168°
Eccentric anomaly
95.42469°
Mean motion
3.81731 °/min
Orbital period
94.31 mins
BSTAR
0.00029267
Loading maneuver chart data...
Computing Atmospheric mass density...
Loading historical data...
Loading historical data...
Loading historical data...
Loading historical data...
Loading historical data...
Loading historical data...
Loading historical data...

Documentation

Showing up to 5 results
|